TimeCDT,TemperatureF,Dew PointF,Humidity,Sea Level PressureIn,VisibilityMPH,Wind Direction,Wind SpeedMPH,Gust SpeedMPH,PrecipitationIn,Events,Conditions,WindDirDegrees,DateUTC
12:53 AM,75.9,70.0,82,29.89,10.0,East,3.5,-,N/A,,Clear,90,2013-07-23 05:53:00
1:53 AM,77.0,71.1,82,29.88,10.0,ESE,3.5,-,N/A,,Clear,110,2013-07-23 06:53:00
2:53 AM,75.9,70.0,82,29.88,10.0,ENE,3.5,-,N/A,,Clear,60,2013-07-23 07:53:00
3:53 AM,75.9,71.1,85,29.87,10.0,East,3.5,-,N/A,,Clear,80,2013-07-23 08:53:00
4:53 AM,75.0,71.1,87,29.86,10.0,East,3.5,-,N/A,,Clear,80,2013-07-23 09:53:00
5:53 AM,75.0,71.1,87,29.87,10.0,NE,4.6,-,N/A,,Clear,40,2013-07-23 10:53:00
6:53 AM,75.0,72.0,90,29.89,10.0,Calm,Calm,-,N/A,,Clear,0,2013-07-23 11:53:00
7:53 AM,78.1,72.0,81,29.90,10.0,Calm,Calm,-,N/A,,Partly Cloudy,0,2013-07-23 12:53:00
8:53 AM,84.9,73.0,67,29.90,10.0,Calm,Calm,-,N/A,,Clear,0,2013-07-23 13:53:00
9:53 AM,90.0,73.0,57,29.90,10.0,West,11.5,-,N/A,,Clear,260,2013-07-23 14:53:00
10:53 AM,91.9,73.0,54,29.91,10.0,West,10.4,-,N/A,,Clear,260,2013-07-23 15:53:00
11:53 AM,95.0,73.0,49,29.88,10.0,WSW,10.4,17.3,N/A,,Clear,240,2013-07-23 16:53:00
12:53 PM,97.0,73.9,47,29.87,10.0,Variable,3.5,-,N/A,,Clear,0,2013-07-23 17:53:00
1:53 PM,99.0,73.0,43,29.84,10.0,WNW,9.2,-,N/A,,Clear,290,2013-07-23 18:53:00
2:53 PM,100.0,72.0,40,29.82,10.0,West,11.5,-,N/A,,Clear,270,2013-07-23 19:53:00
3:53 PM,98.1,71.1,42,29.79,10.0,West,4.6,-,N/A,,Scattered Clouds,260,2013-07-23 20:53:00
4:53 PM,98.1,68.0,37,29.78,10.0,SSW,15.0,21.9,N/A,,Clear,210,2013-07-23 21:53:00
5:53 PM,98.1,68.0,37,29.77,10.0,SW,10.4,-,N/A,,Clear,220,2013-07-23 22:53:00
6:53 PM,93.0,69.1,45,29.77,10.0,SW,12.7,-,N/A,,Clear,220,2013-07-23 23:53:00
7:53 PM,91.0,70.0,50,29.77,10.0,SSW,11.5,-,N/A,,Clear,200,2013-07-24 00:53:00
8:53 PM,87.1,70.0,57,29.79,10.0,East,11.5,16.1,N/A,,Mostly Cloudy,100,2013-07-24 01:53:00
9:46 PM,75.2,71.6,89,29.86,4.0,ESE,16.1,25.3,0.04,Rain-Thunderstorm,Light Rain,110,2013-07-24 02:46:00
9:53 PM,75.0,72.0,90,29.85,6.0,East,18.4,28.8,0.06,Rain-Thunderstorm,Rain,100,2013-07-24 02:53:00
10:25 PM,75.2,73.4,94,29.95,2.5,North,26.5,36.8,0.04,Rain-Thunderstorm,Thunderstorms and Rain,360,2013-07-24 03:25:00
10:30 PM,73.4,71.6,94,29.93,0.8,East,17.3,36.8,0.24,Rain-Thunderstorm,Heavy Thunderstorms and Rain,80,2013-07-24 03:30:00
10:41 PM,73.4,71.6,94,29.93,1.0,East,13.8,21.9,0.86,Rain-Thunderstorm,Heavy Thunderstorms and Rain,100,2013-07-24 03:41:00
10:50 PM,73.4,71.6,94,29.93,2.0,SE,15.0,21.9,1.04,Rain-Thunderstorm,Heavy Thunderstorms and Rain,140,2013-07-24 03:50:00
10:51 PM,73.0,72.0,96,29.91,2.5,SE,11.5,21.9,1.04,Rain-Thunderstorm,Heavy Thunderstorms and Rain,140,2013-07-24 03:51:00
11:00 PM,73.4,71.6,94,29.89,2.0,SE,16.1,25.3,0.07,Rain-Thunderstorm,Heavy Thunderstorms and Rain,140,2013-07-24 04:00:00
11:10 PM,73.4,71.6,94,29.86,1.8,SE,11.5,23.0,0.28,Rain-Thunderstorm,Heavy Thunderstorms and Rain,130,2013-07-24 04:10:00
11:14 PM,73.4,71.6,94,29.87,3.0,SE,12.7,23.0,0.31,Rain-Thunderstorm,Light Thunderstorms and Rain,130,2013-07-24 04:14:00
11:46 PM,73.4,71.6,94,29.93,3.0,NE,12.7,-,0.37,Rain-Thunderstorm,Heavy Thunderstorms and Rain,40,2013-07-24 04:46:00
11:53 PM,73.0,71.1,93,29.90,2.5,NE,17.3,-,0.43,Rain-Thunderstorm,Heavy Rain,50,2013-07-24 04:53:00